This is the latest recevied weather packets stored in our database for station/object JA6YCL-13. If no packets are shown the sender has not sent any weather packets the latest 10 day(s).
| Time | Temp. | Humidity | Pressure | Rain* | Wind** | Luminosity | Snow |
|---|---|---|---|---|---|---|---|
| 1777746204 | 14.44° C | 83% | 1010.4 hPa | 0 mm | - | - | - |
| 1777745363 | 14.44° C | 84% | 1010.3 hPa | 0 mm | - | - | - |
| 1777744546 | 14.44° C | 84% | 1010.1 hPa | 0 mm | - | - | - |
| 1777743756 | 14.44° C | 84% | 1010.3 hPa | 0 mm | - | - | - |
| 1777742891 | 14.44° C | 84% | 1010.9 hPa | 0 mm | - | - | - |
| 1777742111 | 14.44° C | 84% | 1011.5 hPa | 0 mm | - | - | - |
| 1777741337 | 14.44° C | 84% | 1011.5 hPa | 0 mm | - | - | - |
| 1777740616 | 14.44° C | 84% | 1011.7 hPa | 0 mm | - | - | - |
| 1777739889 | 15° C | 83% | 1011.7 hPa | 0 mm | - | - | - |
| 1777739121 | 14.44° C | 84% | 1011.7 hPa | 0 mm | - | - | - |
| 1777738291 | 14.44° C | 84% | 1011.7 hPa | 0 mm | - | - | - |
| 1777737459 | 14.44° C | 84% | 1011.9 hPa | 0 mm | - | - | - |
| 1777736741 | 14.44° C | 83% | 1012.2 hPa | 0 mm | - | - | - |
| 1777735966 | 15° C | 82% | 1012.5 hPa | 0 mm | - | - | - |
| 1777735091 | 15° C | 82% | 1012.5 hPa | 0 mm | - | - | - |
| 1777734326 | 15° C | 81% | 1012.7 hPa | 0 mm | - | - | - |
| 1777733496 | 15.56° C | 79% | 1012.8 hPa | 0 mm | - | - | - |
| 1777732684 | 16.11° C | 76% | 1012.7 hPa | 0 mm | - | - | - |
| 1777731881 | 16.11° C | 75% | 1012.7 hPa | 0 mm | - | - | - |
| 1777731027 | 15.56° C | 76% | 1012.7 hPa | 0 mm | - | - | - |
| 1777730280 | 16.11° C | 76% | 1013.1 hPa | 0 mm | - | - | - |
| 1777729466 | 16.67° C | 75% | 1013.2 hPa | 0 mm | - | - | - |
| 1777728652 | 16.11° C | 76% | 1013.5 hPa | 0 mm | - | - | - |
| 1777727832 | 16.11° C | 73% | 1013.3 hPa | 0 mm | - | - | - |
| 1777726987 | 16.67° C | 71% | 1013.3 hPa | 0 mm | - | - | - |
* Rain latest hour (hover to see other rain measurements)
** Current wind speed in m/s (hover to see current wind gust speed)